This is the latest recevied weather packets stored in our database for station/object WASF. If no packets are shown the sender has not sent any weather packets the latest 10 day(s).
| Time | Temp. | Humidity | Pressure | Rain* | Wind** | Luminosity | Snow |
|---|---|---|---|---|---|---|---|
| 1787448244 | 26.11° C | 65% | 1018 hPa | 0 mm | - | - | - |
| 1787446138 | 25° C | 65% | 1018 hPa | 0 mm | - | - | - |
| 1787444083 | 25° C | 61% | 1017 hPa | 0 mm | - | - | - |
| 1787441923 | 22.78° C | 69% | 1017 hPa | 0 mm | - | - | - |
| 1787439949 | 21.11° C | 83% | 1017 hPa | 0 mm | - | - | - |
| 1787437979 | 20° C | 88% | 1016 hPa | 0 mm | - | - | - |
| 1787436009 | 20° C | 88% | 1016 hPa | 0 mm | - | - | - |
| 1787434108 | 20° C | 88% | 1016 hPa | 0 mm | - | - | - |
| 1787432032 | 21.11° C | 83% | 1016 hPa | 0 mm | - | - | - |
| 1787430071 | 21.11° C | 88% | 1015 hPa | 0 mm | - | - | - |
| 1787428111 | 21.11° C | 88% | 1015 hPa | 0 mm | - | - | - |
| 1787426152 | 22.22° C | 83% | 1015 hPa | 0 mm | - | - | - |
| 1787424188 | 21.11° C | 88% | 1015 hPa | 0 mm | - | - | - |
| 1787422223 | 22.22° C | 88% | 1016 hPa | 0 mm | - | - | - |
| 1787420265 | 22.22° C | 88% | 1016 hPa | 0 mm | - | - | - |
| 1787418271 | 22.22° C | 94% | 1016 hPa | 0 mm | - | - | - |
| 1787416301 | 22.78° C | 89% | 1016 hPa | 0 mm | - | - | - |
| 1787414321 | 22.78° C | 89% | 1017 hPa | 0 mm | - | - | - |
| 1787412336 | 23.89° C | 89% | 1017 hPa | 0 mm | - | - | - |
| 1787410334 | 23.89° C | 89% | 1017 hPa | 0 mm | - | - | - |
| 1787408363 | 23.89° C | 89% | 1017 hPa | 0 mm | - | - | - |
| 1787406384 | 23.89° C | 89% | 1017 hPa | 0 mm | - | - | - |
| 1787404409 | 23.89° C | 89% | 1017 hPa | 0 mm | - | - | - |
| 1787402427 | 23.89° C | 83% | 1017 hPa | 0 mm | - | - | - |
| 1787400444 | 23.89° C | 83% | 1016 hPa | 0 mm | - | - | - |
* Rain latest hour (hover to see other rain measurements)
** Current wind speed in m/s (hover to see current wind gust speed)